Weather History for St. Petersburg Airport, FL

Change the Weather History Date:

Friday, October 19, 2012

  Actual Average Record
Temperature  
Mean Temperature 77 °F -  
Max Temperature 86 °F 82 °F 90 °F (1985)
Min Temperature 68 °F 68 °F 57 °F (1955)
Cooling Degree Days 12    
Growing Degree Days 27 (Base 50)    
Moisture  
Dew Point 70 °F    
Average Humidity 80    
Maximum Humidity 96    
Minimum Humidity 55    
Precipitation  
Precipitation 0.00 in - - ()
Sea Level Pressure  
Sea Level Pressure 29.86 in    
Wind  
Wind Speed 3 mph (WSW)    
Max Wind Speed 10 mph    
Max Gust Speed -    
Visibility 10 miles    
Events      
Averages and records for this station are not official NWS values.
T = Trace of Precipitation, MM = Missing Value Source: NWS Daily Summary

Daily Weather History Graph

Daily Weather History Graph

Search for Another Location

Airport:

Trip Planner

Search our weather history database for the weather conditions in past years. The results will help you decide how hot, cold, wet, or windy it might be!

Date:

Astronomy

Oct. 19, 2012 Rise Set
Actual Time 7:33 AM EDT 6:57 PM EDT
Civil Twilight 7:09 AM EDT 7:20 PM EDT
Nautical Twilight 6:42 AM EDT 7:48 PM EDT
Astronomical Twilight 6:15 AM EDT 8:15 PM EDT
Moon 11:58 AM EDT (10/19) 10:50 PM EDT (10/19)
Length of Visible Light 12h 10m
Length of Day
11h 23m
Waxing Crescent, 23% of the Moon is Illuminated
Oct 19
Waxing Crescent
Oct 21
First Quarter
Oct 29
Full
Nov 6
Last Quarter
Nov 13
New

Hourly Weather History & Observations

Time (EDT) Temp. Heat Index Dew Point Humidity Pressure Visibility Wind Dir Wind Speed Gust Speed Precip Events Conditions
12:53 AM 71.1 °F - 69.1 °F 93% 29.88 in 10.0 mi Calm Calm - N/A   Clear
1:53 AM 70.0 °F - 68.0 °F 93% 29.88 in 10.0 mi Calm Calm - N/A   Clear
2:53 AM 69.1 °F - 68.0 °F 96% 29.86 in 10.0 mi South 3.5 mph - N/A   Clear
3:53 AM 69.1 °F - 68.0 °F 96% 29.85 in 10.0 mi Calm Calm - N/A   Clear
4:18 AM 69.8 °F - 68.0 °F 94% 29.85 in 2.5 mi Calm Calm - N/A   Clear
4:53 AM 69.1 °F - 66.9 °F 93% 29.85 in 10.0 mi Calm Calm - N/A   Clear
5:53 AM 68.0 °F - 66.9 °F 96% 29.85 in 8.0 mi Calm Calm - N/A   Clear
6:53 AM 69.1 °F - 68.0 °F 96% 29.85 in 10.0 mi South 3.5 mph - N/A   Clear
7:53 AM 70.0 °F - 68.0 °F 93% 29.86 in 10.0 mi Calm Calm - N/A   Clear
8:53 AM 75.0 °F - 72.0 °F 90% 29.87 in 10.0 mi Calm Calm - N/A   Clear
9:53 AM 80.1 °F 83.8 °F 72.0 °F 76% 29.89 in 10.0 mi SSW 6.9 mph - N/A   Partly Cloudy
10:53 AM 82.0 °F 86.3 °F 71.1 °F 69% 29.90 in 10.0 mi Variable 6.9 mph - N/A   Scattered Clouds
11:53 AM 82.9 °F 87.0 °F 70.0 °F 65% 29.89 in 10.0 mi WSW 9.2 mph - N/A   Scattered Clouds
12:53 PM 84.0 °F 87.8 °F 69.1 °F 61% 29.88 in 10.0 mi West 9.2 mph - N/A   Scattered Clouds
1:53 PM 84.0 °F 89.0 °F 71.1 °F 65% 29.86 in 10.0 mi WNW 10.4 mph - N/A   Scattered Clouds
2:53 PM 86.0 °F 89.4 °F 68.0 °F 55% 29.85 in 10.0 mi West 6.9 mph - N/A   Partly Cloudy
3:53 PM 84.9 °F 88.8 °F 69.1 °F 59% 29.83 in 10.0 mi West 9.2 mph - N/A   Partly Cloudy
4:53 PM 82.9 °F 87.0 °F 70.0 °F 65% 29.83 in 10.0 mi Variable 4.6 mph - N/A   Overcast
5:53 PM 82.0 °F 85.5 °F 69.1 °F 65% 29.83 in 10.0 mi West 5.8 mph - N/A   Scattered Clouds
6:53 PM 80.1 °F 82.9 °F 69.1 °F 69% 29.83 in 10.0 mi SW 5.8 mph - N/A   Partly Cloudy
7:53 PM 77.0 °F - 71.1 °F 82% 29.84 in 10.0 mi Calm Calm - N/A   Scattered Clouds
8:53 PM 77.0 °F - 72.0 °F 84% 29.86 in 10.0 mi SSW 3.5 mph - N/A   Overcast
9:53 PM 77.0 °F - 72.0 °F 84% 29.88 in 10.0 mi West 3.5 mph - N/A   Scattered Clouds
10:53 PM 77.0 °F - 72.0 °F 84% 29.89 in 10.0 mi West 4.6 mph - N/A   Clear
11:53 PM 75.9 °F - 72.0 °F 87% 29.89 in 10.0 mi SW 3.5 mph - N/A   Clear